HEMAVAN current weather conditions

sailwx.info

Wind from 300 at 1 knots

Air temperature -1.0° C
Visibility: greater than 5.4 NM
Dewpoint -2.0° C

Last reported at 2015-May-24 23:20 UTC.
Time now 2015-May-25 01:27 UTC

Location: N 65°48' E 015°05'.
View on Google Maps.

See reports from other nearby stations

  
Tides and Currents Weather Stations Pressure Air Temp Water Temp Dewpoint Dewpoint Depression Visibility Wind Speed Wind Dir Waves Ship Positions
date/time (UTC)wind fromknots sea level pressurealtimeterstation pressurevisibilityair tempwater tempwave heightnotes
2015-May-25 00:20 5.4-0.0
2015-May-24 23:50 5.4-1.0
2015-May-24 23:20 300 1 5.4-1.0
2015-May-24 22:50 5.4-1.0
2015-May-24 22:20 5.4-1.0
2015-May-24 21:50 110 1 5.4 1.0
2015-May-24 21:20 5.4 1.0
2015-May-24 20:50 280 2 5.4 2.0
2015-May-24 20:20 5.4 4.0
2015-May-24 19:50 090 3 5.4 6.0
2015-May-24 19:20 5.4 6.0
2015-May-24 18:50 190 3 5.4 6.0
2015-May-24 18:20 190 4 5.4 7.0
2015-May-24 17:50 190 4 5.4 7.0
2015-May-24 17:20 230 3 5.4 7.0
2015-May-24 16:50 010 3 5.4 7.0
2015-May-24 16:20 050 4 5.4 7.0
2015-May-24 15:50 320 2 5.4 8.0
2015-May-24 15:20 310 3 5.4 7.0
2015-May-24 14:50 320 7 5.4 7.0
2015-May-24 14:20 270 5 5.4 7.0
2015-May-24 13:50 270 6 5.4 6.0
2015-May-24 13:20 270 6 5.4 7.0
2015-May-24 12:50 290 7 5.4 7.0
2015-May-24 12:20 280 7 5.4 7.0
2015-May-24 11:50 280 7 5.4 7.0
2015-May-24 11:20 310 7 5.4 6.0
2015-May-24 10:50 300 7 5.4 6.0
2015-May-24 10:20 280 7 5.4 6.0
2015-May-24 09:50 280 6 5.4 6.0
2015-May-24 09:20 290 8 5.4 6.0
2015-May-24 08:50 300 6 5.4 5.0
2015-May-24 08:20 300 7 5.4 4.0
2015-May-24 07:50 280 8 5.4 4.0
2015-May-24 07:20 320 5 5.4 4.0
2015-May-24 06:50 300 9 5.4 4.0
2015-May-24 06:20 290 6 5.4 4.0
2015-May-24 05:50 290 8 5.4 3.0
2015-May-24 05:20 290 12 5.4 4.0
2015-May-24 04:50 320 6 5.4 3.0
2015-May-24 04:20 320 4 5.4 3.0
2015-May-24 03:50 330 6 5.4 3.0
2015-May-24 03:20 5.4 1.0
2015-May-24 02:50 350 4 5.4 1.0
2015-May-24 02:20 360 3 5.4 1.0
2015-May-24 01:50 290 7 5.4 1.0
2015-May-24 01:20 350 12 5.4 1.0
2015-May-24 00:50 320 11 5.4 2.0
2015-May-24 00:20 280 13 5.4 2.0
2015-May-23 23:50 300 6 5.4 1.0
2015-May-23 23:20 350 6 5.4 1.0 Mist.
2015-May-23 22:50 360 5 0.7-0.0 Light snow.
2015-May-23 22:20 340 4 1.6 1.0 Light rain snow.
2015-May-23 21:50 330 4 5.4 2.0
2015-May-23 21:20 5.4 2.0
2015-May-23 20:50 300 9 5.4 1.0 Precipitation.
2015-May-23 20:20 300 10 5.4 1.0
2015-May-23 19:50 290 10 5.4 1.0
2015-May-23 19:20 290 10 5.4 1.0 Precipitation.
2015-May-23 18:50 290 10 5.4 2.0
2015-May-23 18:20 280 11 5.4 2.0
2015-May-23 17:50 280 17 5.4 2.0 Light snow.
2015-May-23 17:20 290 14 5.4 2.0
2015-May-23 16:50 290 14 5.4 3.0
2015-May-23 16:20 300 11 5.4 3.0
2015-May-23 15:50 310 10 5.4 2.0 Light rain.
2015-May-23 15:20 290 12 5.4 2.0 Drizzle.
2015-May-23 14:50 300 10 5.4 3.0 Light rain.
2015-May-23 14:20 300 5 5.4 3.0 Light rain.
2015-May-23 13:50 290 7 5.4 4.0 Light drizzle.
2015-May-23 13:20 300 10 5.4 5.0
2015-May-23 12:50 290 10 5.4 5.0
2015-May-23 12:20 280 12 5.4 5.0
2015-May-23 11:50 300 13 5.4 4.0
2015-May-23 11:20 300 13 5.4 5.0
2015-May-23 10:50 310 12 5.4 5.0
2015-May-23 10:20 300 16 5.4 3.0 Rain.
2015-May-23 09:50 300 15 5.4 5.0
2015-May-23 09:20 300 15 5.4 4.0
2015-May-23 08:50 310 11 5.4 4.0
2015-May-23 08:20 300 10 5.4 4.0
2015-May-23 07:50 310 8 5.4 3.0
2015-May-23 07:20 290 12 5.4 4.0
2015-May-23 06:50 290 10 5.4 4.0
2015-May-23 06:20 300 9 5.4 3.0
2015-May-23 05:50 300 8 5.4 3.0
2015-May-23 05:20 300 7 5.4 3.0
2015-May-23 04:50 310 7 5.4 2.0
2015-May-23 04:20 300 7 5.4 2.0
2015-May-23 03:50 290 7 5.4 2.0
2015-May-23 03:20 5.4 1.0
2015-May-23 02:50 360 2 5.4-0.0
2015-May-23 02:20 350 3 5.4-0.0
2015-May-23 01:50 010 3 5.4-0.0
2015-May-23 01:20 5.4-0.0